Location: Rotheul
(50.2849°N, 11.2349°E)
Time: 11:16:41
(UTC+01:00)

ISS - Visible Passes

Search period start: 21 November 2017 00:00
Search period end: 01 December 2017 00:00
Orbit: 402 x 407 km, 51.6° (Epoch: 21 November)

Date Brightness Start Highest point End Pass type
(mag) Time Alt. Az. Time Alt. Az. Time Alt. Az.
28 Nov -1.7 18:16:16 10° S 18:17:53 17° SSE 18:17:53 17° SSE visible
29 Nov -1.4 17:25:24 10° SSE 17:26:30 11° SE 17:27:37 10° ESE visible
29 Nov -1.5 18:59:11 10° SW 19:00:27 21° SW 19:00:27 21° SW visible
30 Nov -2.8 18:07:07 10° SW 18:10:05 32° SSE 18:10:17 32° SE visible
